Location: Unspecified
(0.0000°N, 0.0000°E)
Time: 16:42:00
(UTC+00:00)

Vanguard 3 - Visible Passes

Search period start: 23 May 2018 00:00
Search period end: 02 June 2018 00:00
Orbit: 508 x 3264 km, 33.4° (Epoch: 23 May)

Date Brightness Start Highest point End Pass type
(mag) Time Alt. Az. Time Alt. Az. Time Alt. Az.
23 May 10.4 03:54:28 10° S 03:59:24 14° SE 04:05:33 10° ESE visible
23 May 7.4 19:54:00 10° WNW 19:59:09 49° WSW 19:59:09 49° WSW visible
24 May 10.2 04:49:33 10° SSW 04:58:35 31° SE 05:12:17 10° E visible
24 May 7.5 18:38:25 10° NW 18:46:04 62° NNE 18:49:42 17° ESE visible
25 May 10.2 03:38:50 11° S 03:43:30 15° SE 03:50:02 10° ESE visible
25 May 7.7 19:38:02 10° WNW 19:43:59 38° SW 19:44:50 35° SSW visible
26 May 10.0 04:33:55 11° SSW 04:42:15 35° SE 04:55:49 10° E visible
26 May 7.5 18:21:47 10° NW 18:30:28 84° NE 18:35:23 10° ESE visible
27 May 10.1 03:24:24 14° SSE 03:27:33 17° SE 03:34:24 10° ESE visible
27 May 9.6 05:30:33 10° SW 05:40:52 66° SE 05:58:21 10° ENE visible
27 May 8.4 19:22:06 10° WNW 19:28:14 30° SW 19:30:31 21° S visible
28 May 9.6 04:19:31 18° SSW 04:25:56 39° SE 04:39:15 10° ENE visible
29 May 9.9 03:10:01 18° SSE 03:11:34 18° SE 03:18:39 10° E visible
29 May 9.3 05:14:52 10° SW 05:24:24 75° SE 05:41:15 10° ENE visible
29 May 8.9 19:06:13 10° W 19:12:25 25° SW 19:16:11 12° S visible
30 May 9.2 04:05:07 26° SSW 04:09:40 44° SE 04:22:36 10° ENE visible
31 May 9.8 02:55:38 20° SE 02:55:38 20° SE 03:02:48 10° E visible
31 May 9.0 05:00:14 15° SW 05:08:05 86° SE 05:24:04 10° NE visible
31 May 9.3 18:50:21 10° W 18:56:33 22° SW 19:00:52 10° S visible
01 Jun 8.7 03:50:45 38° S 03:53:29 50° SE 04:05:54 10° ENE visible
